Home   Weather   Kailua-Kona   Past weeks
Flag for USA

Past Weather in Kailua-Kona, Hawaii, USA — Yesterday and Last 2 Weeks

Now
75 °F

Passing clouds.


Feels Like: 75 °F
Forecast: 78 / 69 °F
Wind: No wind

Location: Keahole Airport

Current Time: Oct 18, 2019 at 6:30:35 am

Latest Report: Oct 18, 2019 at 5:53 am


Visibility: 10 mi

Pressure: 30.00 "Hg

Humidity: 85%

Dew Point: 70 °F

Location of Kailua-KonaLocation

Past Weather in Kailua-Kona — Graph

°F

Kailua-Kona Temperature Yesterday

Maximum temperature yesterday: 86 °F (at 2:53 pm)
Minimum temperature yesterday: 74 °F (at 5:53 am)
Average temperature yesterday: 78 °F

High & Low Weather Summary for the Past Weeks

 TemperatureHumidityPressure
High88 °F (Oct 4, 1:53 pm)94% (Oct 17, 2:33 am)30.04 "Hg (Oct 17, 2:33 am)
Low73 °F (Oct 6, 5:53 am)51% (Oct 3, 8:53 am)29.80 "Hg (Oct 9, 2:53 pm)
Average81 °F69%29.91 "Hg
* Reported Oct 3 4:53 am — Oct 18 4:53 am, Kailua-Kona. Weather by CustomWeather, © 2019

Note: Actual official high and low records may vary slightly from our data, if they occured in-between our weather recording intervals... More about our weather records

Advertising

Kailua-Kona Weather History for the Previous 24 Hours

Scroll right to see more
 ConditionsComfort  
Time TempWeatherWind HumidityBarometerVisibility
4:53 am
Fri, Oct 18
74 °FPassing clouds.3 mph82%29.98 "Hg10 mi
3:53 am74 °FPassing clouds.3 mph82%29.98 "Hg10 mi
2:53 am76 °FPassing clouds.No wind82%29.98 "Hg10 mi
1:53 am76 °FPartly cloudy.3 mph80%30.00 "Hg10 mi
12:53 am77 °FPassing clouds.8 mph77%30.01 "Hg10 mi
11:53 pm
Thu, Oct 17
76 °FOvercast.5 mph77%30.03 "Hg10 mi
11:39 pm75 °FPassing clouds.5 mph83%30.03 "Hg10 mi
11:21 pm75 °FPassing clouds.5 mph82%30.04 "Hg10 mi
9:53 pm77 °FClear.12 mph82%30.03 "Hg10 mi
8:53 pm78 °FClear.15 mph84%30.02 "Hg10 mi
7:53 pm80 °FClear.No wind64%29.99 "Hg10 mi
6:53 pm81 °FPartly cloudy.12 mph65%29.98 "Hg10 mi
5:53 pm82 °FPartly sunny.10 mph63%29.96 "Hg10 mi
4:53 pm84 °FOvercast.6 mph63%29.95 "Hg10 mi
3:53 pm84 °FBroken clouds.18 mph63%29.95 "Hg10 mi
2:53 pm86 °FScattered clouds.18 mph61%29.95 "Hg10 mi
1:53 pm84 °FScattered clouds.15 mph65%29.96 "Hg10 mi
12:53 pm84 °FOvercast.12 mph59%29.98 "Hg10 mi
11:53 am82 °FPartly sunny.7 mph65%30.00 "Hg10 mi
10:53 am80 °FOvercast.6 mph74%30.02 "Hg10 mi
9:53 am80 °FPartly sunny.6 mph74%30.03 "Hg10 mi
8:53 am79 °FBroken clouds.10 mph82%30.02 "Hg10 mi
7:53 am79 °FScattered clouds.8 mph77%30.00 "Hg10 mi
6:53 am75 °FSunny.7 mph82%29.97 "Hg10 mi
Weather by CustomWeather, © 2019

See weather overview